Location: Boulder, CO
(40.0083°N, 105.2472°W)
Time: 08:54:31
(UTC-07:00)

SORCE - Visible Passes

Search period start: 28 February 2015 00:00
Search period end: 10 March 2015 01:00
Orbit: 591 x 622 km, 40.0° (Epoch: 28 February)

Date Brightness Start Highest point End Pass type
(mag) Time Alt. Az. Time Alt. Az. Time Alt. Az.
28 Feb 7.3 19:02:30 10° W 19:06:31 34° SSW 19:09:51 14° SE visible
01 Mar 8.0 19:15:19 10° W 19:18:44 22° SSW 19:22:05 10° SSE visible
02 Mar 8.6 19:28:51 10° WSW 19:30:53 13° SW 19:32:46 10° S visible
05 Mar 9.0 18:25:14 10° SW 18:26:03 10° SW 18:26:40 10° SSW visible
